This is the latest recevied weather packets stored in our database for station/object 4S6DRJ-13. If no packets are shown the sender has not sent any weather packets the latest 10 day(s).
| Time | Temp. | Humidity | Pressure | Rain* | Wind** | Luminosity | Snow |
|---|---|---|---|---|---|---|---|
| 1788257106 | 30.56° C | 72% | 1007.7 hPa | 0 mm | 0.45 m/s, 293° | 232 W/m² | - |
| 1788257046 | 30.56° C | 72% | 1007.8 hPa | 0 mm | 1.34 m/s, 230° | 715 W/m² | - |
| 1788256985 | 30.56° C | 72% | 1007.7 hPa | 0 mm | 1.34 m/s, 249° | 759 W/m² | - |
| 1788256929 | 30.56° C | 72% | 1007.8 hPa | 0 mm | 1.79 m/s, 353° | 760 W/m² | - |
| 1788256863 | 30.56° C | 72% | 1007.8 hPa | 0 mm | 3.58 m/s, 252° | 697 W/m² | - |
| 1788256802 | 30.56° C | 73% | 1007.8 hPa | 0 mm | 0.89 m/s, 193° | 669 W/m² | - |
| 1788256741 | 30.56° C | 73% | 1007.8 hPa | 0 mm | 1.79 m/s, 236° | 344 W/m² | - |
| 1788256680 | 30.56° C | 72% | 1007.8 hPa | 0 mm | 3.13 m/s, 197° | 347 W/m² | - |
| 1788256619 | 30.56° C | 74% | 1007.7 hPa | 0 mm | 1.79 m/s, 16° | 577 W/m² | - |
| 1788256558 | 30.56° C | 74% | 1007.9 hPa | 0 mm | 1.79 m/s, 197° | 319 W/m² | - |
| 1788256497 | 30.56° C | 73% | 1007.7 hPa | 0 mm | 2.24 m/s, 309° | 349 W/m² | - |
| 1788256435 | 30.56° C | 73% | 1007.7 hPa | 0 mm | 2.68 m/s, 213° | 283 W/m² | - |
| 1788256375 | 30.56° C | 73% | 1007.8 hPa | 0 mm | 0.89 m/s, 309° | 240 W/m² | - |
| 1788256314 | 30.56° C | 72% | 1007.9 hPa | 0 mm | 2.68 m/s, 308° | 217 W/m² | - |
| 1788256252 | 30.56° C | 74% | 1007.7 hPa | 0 mm | 1.79 m/s, 209° | 305 W/m² | - |
| 1788256192 | 30.56° C | 73% | 1008 hPa | 0 mm | 1.34 m/s, 105° | 901 W/m² | - |
| 1788256131 | 30.56° C | 73% | 1007.9 hPa | 0 mm | 2.68 m/s, 65° | 329 W/m² | - |
| 1788256087 | 30.56° C | 73% | 1007.8 hPa | 0 mm | 0.45 m/s, 280° | 269 W/m² | - |
| 1788256009 | 30.56° C | 72% | 1007.9 hPa | 0 mm | 3.13 m/s, 254° | 252 W/m² | - |
| 1788255947 | 30.56° C | 72% | 1007.8 hPa | 0 mm | 1.79 m/s, 260° | 853 W/m² | - |
| 1788255887 | 30.56° C | 73% | 1007.6 hPa | 0 mm | 1.79 m/s, 235° | 336 W/m² | - |
| 1788255826 | 30.56° C | 73% | 1007.8 hPa | 0 mm | 1.34 m/s, 353° | 340 W/m² | - |
| 1788255765 | 30.56° C | 72% | 1007.9 hPa | 0 mm | 0.89 m/s, 179° | 908 W/m² | - |
| 1788255703 | 31.11° C | 71% | 1008 hPa | 0 mm | 3.13 m/s, 211° | 364 W/m² | - |
| 1788255643 | 31.11° C | 71% | 1007.8 hPa | 0 mm | 2.24 m/s, 334° | 343 W/m² | - |
* Rain latest hour (hover to see other rain measurements)
** Current wind speed in m/s (hover to see current wind gust speed)